K5EBQ Weather Reports


time (UTC)temp
C
wind
direction
speed
KPH
gust
KPH
rain 1hr
cm
rain 24hr
cm
rain mn
cm
humidity
%
barometer
mb
20260505000008 25 227 4.8 16.1 0.00 0.00 0.00 70 1008.0
20260504234507 25 215 6.4 16.1 0.00 0.00 0.00 69 1008.0
20260504233010 26 191 4.8 37.0 0.00 0.00 0.00 68 1008.3
20260504231503 26 169 4.8 32.2 0.00 0.00 0.00 69 1008.4
20260504230003 26 177 1.6 54.7 0.00 0.00 0.00 68 1008.5
20260504224500 26 170 6.4 66.0 0.00 0.00 0.00 67 1008.6
20260504223100 26 205 12.9 37.0 0.00 0.00 0.00 67 1008.7
20260504221558 26 107 4.8 48.3 0.00 0.00 0.00 66 1008.9
20260504220118 26 225 16.1 40.2 0.00 0.00 0.00 64 1008.9
20260504214558 27 224 16.1 66.0 0.00 0.00 0.00 61 1009.1
20260504213059 27 183 53.1 169.0 0.00 0.00 0.00 61 1009.2
20260504211556 27 227 17.7 41.8 0.00 0.00 0.00 60 1009.3
20260504210053 27 195 0.0 46.7 0.00 0.00 0.00 59 1009.4
20260504204550 28 206 19.3 70.8 0.00 0.00 0.00 58 1009.7
20260504203050 27 209 30.6 51.5 0.00 0.00 0.00 58 1009.7
20260504201548 28 206 12.9 46.7 0.00 0.00 0.00 58 1010.1
20260504200050 28 189 3.2 61.2 0.00 0.00 0.00 58 1010.5
20260504194546 28 171 29.0 77.2 0.00 0.00 0.00 55 1010.6
20260504193041 27 217 33.8 117.5 0.00 0.00 0.00 58 1010.9
20260504191551 27 202 20.9 46.7 0.00 0.00 0.00 57 1011.1
20260504190043 27 222 17.7 38.6 0.00 0.00 0.00 57 1011.2
20260504184543 27 235 51.5 115.9 0.00 0.00 0.00 57 1011.5
20260504183041 27 238 43.5 67.6 0.00 0.00 0.00 56 1011.6
20260504181531 27 157 30.6 75.6 0.00 0.00 0.00 58 1011.7
20260504180029 27 192 20.9 49.9 0.00 0.00 0.00 58 1011.9
20260504174526 27 205 40.2 51.5 0.00 0.00 0.00 58 1012.1
20260504173026 26 146 24.1 46.7 0.00 0.00 0.00 58 1012.3
20260504171521 26 227 17.7 53.1 0.00 0.00 0.00 61 1012.7
20260504150103 23 225 3.2 75.6 0.00 0.00 0.00 66 1013.6
20260504081506 16 191 0.0 0.0 0.00 0.00 0.00 81 1014.0
20260504044546 17 191 0.0 0.0 0.00 0.00 0.00 72 1016.2
20260504043039 18 191 0.0 0.0 0.00 0.00 0.00 70 1016.1
20260504041537 18 191 0.0 0.0 0.00 0.00 0.00 67 1016.1
20260504040041 19 191 0.0 0.0 0.00 0.00 0.00 65 1016.3
20260504034553 19 191 0.0 0.0 0.00 0.00 0.00 63 1016.2
20260504033041 20 191 0.0 0.0 0.00 0.00 0.00 62 1016.3
20260504031536 20 191 0.0 0.0 0.00 0.00 0.00 61 1016.2
20260504030043 20 186 0.0 0.0 0.00 0.00 0.00 60 1016.1
20260504024535 20 127 0.0 0.0 0.00 0.00 0.00 58 1015.8
20260504023036 21 169 0.0 0.0 0.00 0.00 0.00 56 1015.7
20260504021534 21 223 0.0 0.0 0.00 0.00 0.00 55 1015.8
20260504020037 21 98 0.0 0.0 0.00 0.00 0.00 54 1015.6
20260504014541 21 183 0.0 0.0 0.00 0.00 0.00 53 1015.6
20260504013033 22 157 0.0 0.0 0.00 0.00 0.00 53 1015.4
20260504011531 22 234 0.0 0.0 0.00 0.00 0.00 52 1015.3
20260504010031 22 161 0.0 0.0 0.00 0.00 0.00 51 1015.3
20260504004532 23 122 0.0 0.0 0.00 0.00 0.00 49 1015.2
20260504003034 23 121 0.0 0.0 0.00 0.00 0.00 48 1015.3
20260504001529 24 170 0.0 0.0 0.00 0.00 0.00 46 1015.3